[[{"header":{"parameterUnit":"m.s-1","parameterCategory":1,"la1":30.2991,"la2":30.254,"lo1":-89.0895,"lo2":-89.0444,"dy":0.0017,"dx":0.0017,"nx":28,"ny":28,"refTime":"2023-07-31T03:00:00:Z","depth":0,"parameterNumber":2,"parameterNumberName":"U-component_of_WINDS"},"data":[0,0,0,0,0,0,0,0,0,0,0,0,0,0,0,0,0,0,0,0,0,0,0,0,0,0,0,0,0,0,0,0,0,0,0,0,0,0,0,0,0,0,0,0,0,0,0,0,0,0,0,0,0,0,0,0,0,0,-1.6713,-1.6714,0,-1.6768,-1.6769,-1.6769,-1.6823,-1.6824,-1.6825,-1.6826,-1.6875,-1.6876,-1.6876,0,0,0,0,0,0,0,0,0,0,0,0,0,-1.6649,-1.665,-1.6713,-1.6714,-1.6715,-1.6768,-1.6769,-1.677,-1.6823,-1.6824,-1.6825,-1.6826,-1.6875,-1.6876,-1.6876,0,0,0,0,0,0,0,0,0,0,0,0,0,-1.6688,-1.6651,-1.6713,-1.6748,-1.6752,-1.6768,-1.6769,-1.677,-1.6823,-1.6824,-1.6825,-1.6826,-1.6875,-1.6876,-1.6877,-1.6861,0,0,-1.6879,-1.688,0,0,0,0,0,0,0,0,-1.6685,-1.669,-1.6742,-1.6746,-1.675,-1.679,-1.6765,-1.68,-1.6823,-1.6796,-1.6826,-1.6827,-1.6846,-1.6849,-1.6857,-1.6863,-1.6865,-1.688,-1.688,-1.6881,-1.6881,0,0,0,0,0,0,0,-1.6683,-1.6688,-1.6735,-1.6743,-1.6748,-1.6759,-1.6766,-1.6771,-1.6814,-1.6798,-1.6802,-1.6808,-1.6848,-1.6856,-1.6858,-1.6866,-1.688,-1.688,-1.6881,-1.6881,-1.686,-1.6859,0,0,0,0,0,0,-1.6676,-1.6685,-1.6733,-1.6736,-1.672,-1.6759,-1.6767,-1.6776,-1.6814,-1.6821,-1.6807,-1.6811,-1.6853,-1.6857,-1.686,-1.6842,-1.6881,-1.6881,-1.6882,-1.6861,-1.686,-1.6859,0,0,0,0,0,0,-1.6674,-1.6679,-1.6731,-1.6712,-1.672,-1.6759,-1.6769,-1.6777,-1.6784,-1.6821,-1.6828,-1.6808,-1.6854,-1.6859,-1.686,-1.6845,-1.6882,-1.6883,-1.6863,-1.6861,-1.6859,-1.6807,0,0,0,0,0,0,-1.6672,-1.6679,-1.6674,-1.6712,-1.672,-1.6731,-1.6768,-1.6777,-1.6787,-1.6792,-1.6823,-1.6829,-1.6856,-1.6858,-1.6861,-1.6847,-1.6883,-1.6864,-1.6862,-1.686,-1.681,-1.6804,-1.6798,0,0,0,0,0,-1.667,-1.6656,-1.6673,-1.6679,-1.6716,-1.673,-1.6735,-1.6767,-1.6785,-1.678,-1.6804,-1.6828,-1.6847,-1.6858,-1.6862,-1.6847,-1.6865,-1.6862,-1.686,-1.6813,-1.6805,-1.6798,0,0,0,0,0,0,-1.6612,-1.6661,-1.6681,-1.668,-1.6701,-1.674,-1.6734,-1.6758,-1.6773,-1.6776,-1.6814,-1.6821,-1.6817,-1.6833,-1.6845,-1.6833,-1.6859,-1.6857,-1.6822,-1.6815,-1.6809,-1.6804,-1.6884,0,0,0,0,0,-1.66,-1.661,-1.6652,-1.6646,-1.6656,-1.6693,-1.6701,-1.6724,-1.6746,-1.6755,-1.6778,-1.6797,-1.6807,-1.6813,-1.6824,-1.6814,-1.682,-1.6806,-1.68,-1.6795,-1.6791,-1.6785,-1.6779,-1.685,-1.685,-1.685,0,0,-1.6574,-1.6602,-1.6605,-1.6636,-1.6655,-1.6662,-1.67,-1.6706,-1.6711,-1.6755,-1.6758,-1.6776,-1.6799,-1.6795,-1.6794,-1.6807,-1.6774,-1.6792,-1.6787,-1.6787,-1.6782,-1.6775,-1.6769,-1.6848,-1.6849,-1.6849,0,0,-1.6529,-1.6553,-1.655,-1.6569,-1.6598,-1.6624,-1.6623,-1.6659,-1.6673,-1.6677,-1.671,-1.6716,-1.6733,-1.6748,-1.6757,-1.672,-1.6742,-1.6723,-1.669,-1.6683,-1.6678,-1.6673,-1.6657,-1.6651,-1.672,-1.672,-1.672,0,-1.6491,-1.6506,-1.6545,-1.6549,-1.6561,-1.6604,-1.6601,-1.6617,-1.6647,-1.6653,-1.6669,-1.6691,-1.671,-1.6708,-1.67,-1.6707,-1.6705,-1.6717,-1.6676,-1.6671,-1.6667,-1.6652,-1.6646,-1.6717,-1.6718,-1.6718,-1.6718,0,-1.6457,-1.6466,-1.6461,-1.6491,-1.6503,-1.6503,-1.654,-1.6547,-1.657,-1.6592,-1.6595,-1.662,-1.6636,-1.6639,-1.6661,-1.664,-1.6647,-1.667,-1.6696,-1.6657,-1.6643,-1.6638,-1.6713,-1.6714,-1.6715,-1.6716,0,0,-1.6374,-1.6429,-1.6425,-1.644,-1.6476,-1.6483,-1.6485,-1.6504,-1.6507,-1.6527,-1.6528,-1.6542,-1.6563,-1.6574,-1.6598,-1.6593,-1.6559,-1.6616,-1.6617,-1.6601,-1.6535,-1.6515,-1.6508,-1.6576,-1.6575,-1.6574,-1.6532,0,-1.6332,-1.634,-1.6377,-1.6373,-1.638,-1.6423,-1.6425,-1.6446,-1.6468,-1.6476,-1.65,-1.6508,-1.6537,-1.6543,-1.6541,-1.6564,-1.6545,-1.6568,-1.6573,-1.6573,-1.6562,-1.6501,-1.6481,-1.6439,-1.6527,-1.6526,-1.6526,0,-1.6284,-1.6304,-1.6301,-1.6338,-1.6343,-1.6343,-1.6363,-1.6372,-1.6396,-1.6413,-1.6426,-1.6454,-1.6456,-1.6484,-1.6486,-1.65,-1.6505,-1.6517,-1.6516,-1.6515,-1.6544,-1.6495,-1.6427,-1.6419,-1.6518,-1.6519,-1.6519,0,-1.622,-1.6246,-1.6247,-1.6259,-1.6302,-1.6302,-1.6319,-1.6346,-1.6354,-1.6372,-1.6377,-1.6394,-1.6401,-1.6413,-1.6443,-1.6461,-1.6441,-1.6472,-1.6451,-1.645,-1.6441,-1.6441,-1.637,-1.6451,-1.6451,-1.6451,-1.6451,0,-1.6167,-1.6163,-1.6219,-1.6219,-1.6216,-1.6258,-1.6252,-1.6274,-1.6297,-1.63,-1.6339,-1.6341,-1.6384,-1.639,-1.6415,-1.6411,-1.6415,-1.6426,-1.6432,-1.642,-1.6418,-1.6421,-1.6423,-1.645,-1.645,-1.645,-1.6451,0,-1.6092,-1.6131,-1.6134,-1.6177,-1.6188,-1.6182,-1.6217,-1.6218,-1.6244,-1.6248,-1.6252,-1.6291,-1.63,-1.6334,-1.6351,-1.6368,-1.6355,-1.6369,-1.6346,-1.6349,-1.6326,-1.6326,-1.625,-1.6241,-1.6332,-1.6331,-1.633,0,-1.6054,-1.6052,-1.6096,-1.6102,-1.6119,-1.6129,-1.6139,-1.6181,-1.6189,-1.6218,-1.6215,-1.6228,-1.6241,-1.6254,-1.6282,-1.6295,-1.6307,-1.628,-1.6309,-1.6297,-1.6302,-1.63,-1.6299,-1.6272,-1.6271,-1.627,-1.6269,0,-1.5981,-1.6001,-1.6015,-1.6036,-1.6048,-1.6066,-1.6085,-1.6088,-1.6134,-1.6141,-1.6153,-1.6163,-1.6182,-1.6194,-1.6212,-1.6228,-1.6254,-1.6261,-1.6256,-1.6242,-1.6228,-1.6232,-1.6325,-1.6261,-1.6262,-1.6263,-1.6263,-1.6263,-1.5921,-1.5921,-1.5952,-1.5966,-1.5987,-1.6004,-1.6007,-1.6035,-1.6046,-1.6066,-1.609,-1.6098,-1.6123,-1.6151,-1.6165,-1.6171,-1.6185,-1.6179,-1.6177,-1.6174,-1.6167,-1.6231,-1.6175,-1.6175,-1.6175,-1.6175,-1.6176,0,-1.5847,-1.587,-1.5883,-1.5911,-1.5922,-1.5952,-1.5975,-1.5981,-1.5989,-1.6011,-1.6024,-1.6037,-1.6049,-1.6079,-1.6094,-1.6092,-1.6104,-1.6094,-1.6092,-1.6094,-1.6155,-1.6156,-1.6083,-1.6083,-1.6083,-1.6083,-1.6083,-1.6083,-1.5809,-1.581,-1.5834,-1.5844,-1.5867,-1.5877,-1.5888,-1.5904,-1.5922,-1.5935,-1.5947,-1.5968,-1.5993,-1.601,-1.6021,-1.603,-1.6031,-1.6016,-1.6027,-1.6082,-1.6091,-1.6099,-1.61,-1.6017,-1.6017,-1.5967,-1.5966,-1.5966]},{"header":{"parameterUnit":"m.s-1","parameterCategory":1,"la1":30.2991,"la2":30.254,"lo1":-89.0895,"lo2":-89.0444,"dy":0.0017,"dx":0.0017,"nx":28,"ny":28,"refTime":"2023-07-31T03:00:00:Z","depth":0,"parameterNumber":3,"parameterNumberName":"V-component_of_WINDS"},"data":[0,0,0,0,0,0,0,0,0,0,0,0,0,0,0,0,0,0,0,0,0,0,0,0,0,0,0,0,0,0,0,0,0,0,0,0,0,0,0,0,0,0,0,0,0,0,0,0,0,0,0,0,0,0,0,0,0,0,-0.5502,-0.5502,0,-0.5434,-0.5433,-0.5433,-0.5449,-0.545,-0.5452,-0.5453,-0.5384,-0.5381,-0.5378,0,0,0,0,0,0,0,0,0,0,0,0,0,-0.5646,-0.5643,-0.5502,-0.5502,-0.5501,-0.5434,-0.5433,-0.5432,-0.5449,-0.545,-0.5452,-0.5453,-0.5385,-0.5382,-0.5378,0,0,0,0,0,0,0,0,0,0,0,0,0,-0.5581,-0.5642,-0.5503,-0.5501,-0.55,-0.5434,-0.5433,-0.5432,-0.5448,-0.545,-0.5452,-0.5454,-0.5386,-0.5382,-0.5377,-0.531,0,0,-0.5363,-0.5362,0,0,0,0,0,0,0,0,-0.5585,-0.5576,-0.5502,-0.5501,-0.55,-0.5452,-0.5459,-0.5391,-0.5448,-0.5468,-0.5453,-0.5455,-0.5405,-0.5399,-0.5382,-0.5307,-0.5304,-0.5363,-0.536,-0.5358,-0.5357,0,0,0,0,0,0,0,-0.5589,-0.5579,-0.5475,-0.5501,-0.5499,-0.5503,-0.5496,-0.5446,-0.5426,-0.5466,-0.5467,-0.5459,-0.5405,-0.5387,-0.5381,-0.5303,-0.5363,-0.5359,-0.5356,-0.5355,-0.5165,-0.5163,0,0,0,0,0,0,-0.5595,-0.5582,-0.5478,-0.5473,-0.5548,-0.5499,-0.5491,-0.5465,-0.5427,-0.5423,-0.5457,-0.546,-0.5393,-0.5386,-0.5378,-0.5295,-0.5358,-0.5354,-0.5351,-0.5168,-0.5165,-0.5162,0,0,0,0,0,0,-0.5598,-0.5585,-0.548,-0.5528,-0.5515,-0.5494,-0.5465,-0.5463,-0.5445,-0.542,-0.5417,-0.5442,-0.5395,-0.5385,-0.5326,-0.5293,-0.5352,-0.5348,-0.517,-0.5167,-0.5164,-0.5128,0,0,0,0,0,0,-0.5602,-0.5586,-0.5561,-0.5527,-0.5512,-0.5429,-0.5463,-0.546,-0.5436,-0.5439,-0.5405,-0.5401,-0.5395,-0.5333,-0.5321,-0.5287,-0.5344,-0.5173,-0.5169,-0.5165,-0.5132,-0.5124,-0.5117,0,0,0,0,0,-0.5607,-0.5554,-0.5559,-0.5547,-0.548,-0.5428,-0.5419,-0.5413,-0.5434,-0.5408,-0.5391,-0.5402,-0.5298,-0.5327,-0.5314,-0.5278,-0.5175,-0.517,-0.5165,-0.5136,-0.5126,-0.5117,0,0,0,0,0,0,-0.5586,-0.555,-0.5555,-0.5491,-0.5462,-0.543,-0.5397,-0.5403,-0.5368,-0.5372,-0.5366,-0.5358,-0.5298,-0.5282,-0.5315,-0.5209,-0.524,-0.5232,-0.5222,-0.5212,-0.5204,-0.5209,-0.5341,0,0,0,0,0,-0.5573,-0.5533,-0.5505,-0.545,-0.5435,-0.5419,-0.5396,-0.5393,-0.5363,-0.5351,-0.5331,-0.5302,-0.5262,-0.5236,-0.5199,-0.513,-0.5122,-0.5099,-0.5091,-0.5085,-0.5078,-0.5038,-0.5027,-0.5145,-0.5145,-0.5146,0,0,-0.5548,-0.5524,-0.5499,-0.5445,-0.5423,-0.5381,-0.5409,-0.5364,-0.5332,-0.5345,-0.5287,-0.5271,-0.5238,-0.5173,-0.5144,-0.5158,-0.5043,-0.5078,-0.5074,-0.507,-0.5031,-0.502,-0.501,-0.5142,-0.5143,-0.5143,0,0,-0.548,-0.5458,-0.5409,-0.5385,-0.535,-0.5338,-0.5326,-0.5293,-0.5283,-0.5225,-0.5232,-0.5194,-0.5127,-0.5102,-0.5081,-0.4999,-0.5007,-0.4987,-0.4947,-0.4908,-0.4899,-0.489,-0.4859,-0.4849,-0.4981,-0.498,-0.498,0,-0.5453,-0.539,-0.5384,-0.5337,-0.5312,-0.532,-0.5269,-0.5247,-0.5201,-0.5184,-0.52,-0.5113,-0.5092,-0.502,-0.5,-0.4983,-0.4968,-0.4991,-0.49,-0.4892,-0.4884,-0.4855,-0.4843,-0.4978,-0.4978,-0.4979,-0.4979,0,-0.5357,-0.5313,-0.5278,-0.5232,-0.5203,-0.5155,-0.5141,-0.5112,-0.5112,-0.5098,-0.5037,-0.5011,-0.4967,-0.495,-0.495,-0.4877,-0.4887,-0.4902,-0.4932,-0.4871,-0.4843,-0.4831,-0.4975,-0.4976,-0.4976,-0.4977,0,0,-0.5276,-0.5225,-0.5212,-0.519,-0.515,-0.5115,-0.5067,-0.5022,-0.4997,-0.4965,-0.4923,-0.4864,-0.4876,-0.4852,-0.4849,-0.4814,-0.4749,-0.4833,-0.4832,-0.4817,-0.4664,-0.4653,-0.464,-0.4754,-0.4751,-0.475,-0.4667,0,-0.5203,-0.5117,-0.5108,-0.503,-0.4988,-0.4993,-0.4951,-0.4921,-0.4906,-0.4868,-0.4852,-0.481,-0.4831,-0.4815,-0.4782,-0.4764,-0.4718,-0.477,-0.4714,-0.4712,-0.4721,-0.4625,-0.4613,-0.4536,-0.4656,-0.4654,-0.4653,0,-0.5108,-0.507,-0.4988,-0.4951,-0.4933,-0.4894,-0.4851,-0.4815,-0.4781,-0.4772,-0.4743,-0.4743,-0.4692,-0.4724,-0.4652,-0.4687,-0.4664,-0.4651,-0.4648,-0.4642,-0.4678,-0.4616,-0.4512,-0.45,-0.4636,-0.4637,-0.4638,0,-0.5054,-0.4984,-0.4924,-0.4906,-0.4861,-0.4834,-0.4814,-0.4782,-0.4754,-0.4717,-0.4699,-0.4656,-0.4632,-0.4599,-0.4587,-0.4612,-0.4515,-0.4547,-0.4505,-0.4505,-0.4485,-0.4486,-0.4374,-0.4471,-0.4471,-0.4471,-0.4472,0,-0.4974,-0.4923,-0.49,-0.4863,-0.4805,-0.4795,-0.4738,-0.472,-0.469,-0.4649,-0.4651,-0.4613,-0.46,-0.4559,-0.455,-0.449,-0.448,-0.4471,-0.4469,-0.447,-0.4471,-0.4454,-0.4459,-0.4468,-0.4469,-0.4469,-0.447,0,-0.4905,-0.4888,-0.4823,-0.4785,-0.4774,-0.4733,-0.4701,-0.4665,-0.465,-0.4598,-0.4585,-0.4561,-0.4513,-0.4498,-0.444,-0.4433,-0.4363,-0.4367,-0.4375,-0.4374,-0.4333,-0.4337,-0.4206,-0.4188,-0.4297,-0.4296,-0.4295,0,-0.4855,-0.4815,-0.4772,-0.4744,-0.4723,-0.4679,-0.465,-0.4637,-0.4608,-0.4563,-0.4532,-0.4484,-0.4445,-0.4367,-0.4345,-0.43,-0.4302,-0.4259,-0.4295,-0.4296,-0.4299,-0.4301,-0.4296,-0.4252,-0.4251,-0.425,-0.4249,0,-0.4766,-0.4758,-0.4717,-0.4671,-0.4637,-0.4601,-0.4566,-0.4543,-0.4525,-0.4491,-0.4441,-0.441,-0.4349,-0.4301,-0.4255,-0.4234,-0.4238,-0.4238,-0.4225,-0.4226,-0.4232,-0.4226,-0.4355,-0.4241,-0.4242,-0.4242,-0.4243,-0.4243,-0.4704,-0.4668,-0.4631,-0.4584,-0.4555,-0.4522,-0.4485,-0.4464,-0.4422,-0.4371,-0.4366,-0.4311,-0.4275,-0.4213,-0.4189,-0.4146,-0.4158,-0.4141,-0.4137,-0.4132,-0.4128,-0.4239,-0.4138,-0.4138,-0.4138,-0.4138,-0.4139,0,-0.4614,-0.459,-0.4546,-0.4496,-0.4458,-0.4464,-0.4425,-0.4393,-0.4344,-0.431,-0.427,-0.4211,-0.4163,-0.4135,-0.4087,-0.4057,-0.4058,-0.4045,-0.4047,-0.4041,-0.4121,-0.4135,-0.4045,-0.4045,-0.4045,-0.4045,-0.4045,-0.4046,-0.4563,-0.4501,-0.4489,-0.4412,-0.4388,-0.4334,-0.431,-0.4279,-0.4251,-0.4184,-0.4144,-0.4126,-0.4093,-0.4042,-0.3998,-0.3991,-0.3972,-0.3958,-0.3952,-0.4027,-0.4036,-0.4045,-0.4059,-0.3954,-0.3954,-0.3876,-0.3875,-0.3875]}]]